Home   Weather   Topeka   Past weeks

Flag for USA Past Weather in Topeka, Kansas, USA — Yesterday and Last 2 Weeks

Now
42 °F

Sunny.


Feels Like: 35 °F
Forecast: 29 / 61 °F
Wind: 14 mph from Southeast

Location: Philip Billard Municipal Airport

Current Time: Feb 27, 2017 at 10:21:38 am

Latest Report: Feb 27, 2017 at 9:53 am


Visibility: 5 mi

Pressure: 30.02 "Hg

Humidity: 76%

Dew Point: 35 °F

Location of TopekaLocation

Past Weather in Topeka — Graph

°F

Topeka Temperature Yesterday

Maximum temperature yesterday: 53 °F (at 3:53 pm)
Minimum temperature yesterday: 32 °F (at 11:53 pm)
Average temperature yesterday: 41 °F

High & Low Weather Summary for the Past Weeks

 TemperatureHumidityPressure
High77 °F (Feb 17, 2:53 pm)100% (Feb 24, 7:27 am)30.52 "Hg (Feb 24, 7:27 am)
Low19 °F (Feb 25, 6:53 am)15% (Feb 16, 2:53 pm)29.39 "Hg (Feb 23, 9:09 pm)
Average47 °F62%29.92 "Hg
* Reported Feb 12 9:53 am — Feb 27 9:12 am, Topeka, Weather by CustomWeather, © 2017

Note: Actual official high and low records may vary slightly from our data, if they occured in-between our weather recording intervals... More about our weather records

Advertising

Topeka Weather History for the Previous 24 Hours

Scroll right to see more
 ConditionsComfort  
Time TempWeatherWind HumidityBarometerVisibility
9:12 am
Mon, Feb 27
32 °FIce fog.3 mph100%30.02 "Hg5 mi
8:53 am32 °FFog.5 mph100%30.04 "Hg0 mi
7:53 am28 °FIce fog.5 mph100%30.04 "Hg0 mi
6:53 am25 °FIce fog.No wind100%30.03 "Hg0 mi
5:53 am24 °FIce fog.5 mph100%30.03 "Hg0 mi
5:24 am24 °FIce fog.No wind100%30.01 "Hg0 mi
5:06 am24 °FIce fog.3 mph96%30.00 "Hg1 mi
4:29 am25 °FIce fog.No wind100%30.01 "Hg0 mi
3:53 am27 °FIce fog.No wind100%30.03 "Hg0 mi
3:19 am26 °FIce fog.No wind96%30.02 "Hg1 mi
2:53 am28 °FIce fog.No wind100%30.03 "Hg0 mi
2:08 am28 °FIce fog.No wind96%30.02 "Hg0 mi
2:01 am27 °FIce fog.No wind96%30.02 "Hg1 mi
12:53 am31 °FClear.No wind100%30.03 "Hg9 mi
11:53 pm
Sun, Feb 26
32 °FClear.No wind88%30.03 "Hg10 mi
10:53 pm38 °FClear.6 mph79%30.04 "Hg10 mi
9:53 pm39 °FClear.8 mph76%30.03 "Hg10 mi
8:53 pm36 °FClear.7 mph73%30.01 "Hg10 mi
7:53 pm41 °FClear.No wind55%30.00 "Hg10 mi
6:53 pm48 °FClear.3 mph41%29.98 "Hg10 mi
5:53 pm51 °FSunny.No wind35%29.95 "Hg10 mi
4:53 pm53 °FSunny.3 mph34%29.93 "Hg10 mi
3:53 pm53 °FSunny.3 mph32%29.92 "Hg10 mi
2:53 pm52 °FSunny.7 mph34%29.92 "Hg10 mi
1:53 pm52 °FSunny.12 mph34%29.94 "Hg10 mi
12:53 pm51 °FPartly sunny.10 mph35%29.97 "Hg10 mi
11:53 am47 °FOvercast.7 mph42%30.00 "Hg10 mi
10:53 am43 °FOvercast.8 mph65%30.03 "Hg10 mi
Weather by CustomWeather, © 2017

See weather overviewHow to use our weather pages